ASE516 LOWW-ELLX

Flight info

Callsign ASE516
Flight time 1h 12m
Altitude 38000
Route MEDIX 1C.MEDIX DCT RENKA L610 UPALA Z744 COSJE T892 BETEX
Aircraft A20N/M-L/2543

Departure

Time 2026-04-24 21:34
Airport Vienna International Airport (LOWW)

Arrival

Time 2026-04-24 22:47
Airport Luxembourg-Findel International Airport (ELLX)
Time Latitude Longitude Altitude Speed Heading
2026-04-24 21:01 48.11974 16.55842 609 ft 0 kts 294°
2026-04-24 21:20 48.11973 16.55844 609 ft 1 kts 294°
2026-04-24 21:21 48.11970 16.55853 609 ft 1 kts 294°
2026-04-24 21:21 48.11967 16.55864 626 ft 1 kts 278°
2026-04-24 21:21 48.11966 16.55875 610 ft 1 kts 253°
2026-04-24 21:21 48.11969 16.55886 613 ft 1 kts 228°
2026-04-24 21:22 48.11973 16.55893 615 ft 0 kts 208°
2026-04-24 21:26 48.11953 16.55877 616 ft 11 kts 206°
2026-04-24 21:26 48.11892 16.55832 609 ft 7 kts 206°
2026-04-24 21:26 48.11818 16.55794 611 ft 7 kts 187°
2026-04-24 21:26 48.11785 16.55793 615 ft 10 kts 176°
2026-04-24 21:27 48.11747 16.55794 611 ft 10 kts 184°
2026-04-24 21:27 48.11677 16.55844 609 ft 15 kts 125°
2026-04-24 21:27 48.11660 16.55890 611 ft 11 kts 118°
2026-04-24 21:27 48.11612 16.56039 612 ft 22 kts 114°
2026-04-24 21:28 48.11534 16.56279 613 ft 31 kts 116°
2026-04-24 21:28 48.11427 16.56609 619 ft 39 kts 116°
2026-04-24 21:28 48.11314 16.56956 620 ft 40 kts 116°
2026-04-24 21:28 48.11184 16.57355 620 ft 44 kts 117°
2026-04-24 21:29 48.11102 16.57611 611 ft 25 kts 116°
2026-04-24 21:29 48.11070 16.57704 616 ft 3 kts 116°
2026-04-24 21:29 48.11068 16.57710 620 ft 0 kts 116°
2026-04-24 21:30 48.11058 16.57740 612 ft 10 kts 120°
2026-04-24 21:30 48.11030 16.57788 609 ft 7 kts 139°
2026-04-24 21:30 48.10977 16.57834 615 ft 0 kts 156°
2026-04-24 21:30 48.10969 16.57839 618 ft 3 kts 159°
2026-04-24 21:31 48.10963 16.57844 613 ft 0 kts 154°
2026-04-24 21:31 48.10951 16.57879 612 ft 8 kts 94°
2026-04-24 21:31 48.10995 16.57919 609 ft 12 kts 13°
2026-04-24 21:31 48.11026 16.57927 609 ft 8 kts
2026-04-24 21:32 48.11095 16.57896 620 ft 14 kts 316°
2026-04-24 21:32 48.11146 16.57759 619 ft 18 kts 298°
2026-04-24 21:32 48.11153 16.57607 613 ft 17 kts 224°
2026-04-24 21:32 48.11056 16.57513 613 ft 15 kts 208°
2026-04-24 21:33 48.11049 16.57506 621 ft 0 kts 208°
2026-04-24 21:33 48.11034 16.57494 609 ft 9 kts 208°
2026-04-24 21:33 48.10961 16.57407 612 ft 14 kts 252°
2026-04-24 21:33 48.10984 16.57308 609 ft 0 kts 288°
2026-04-24 21:34 48.11118 16.56912 620 ft 86 kts 296°
2026-04-24 21:34 48.11490 16.55790 611 ft 151 kts 297°
2026-04-24 21:34 48.11996 16.54205 1236 ft 171 kts 296°
2026-04-24 21:35 48.12289 16.52492 2544 ft 173 kts 271°
2026-04-24 21:35 48.11857 16.50755 3281 ft 193 kts 234°
2026-04-24 21:35 48.10741 16.49430 3829 ft 217 kts 214°
2026-04-24 21:35 48.09365 16.48352 4752 ft 224 kts 211°
2026-04-24 21:36 48.07971 16.47318 5894 ft 223 kts 215°
2026-04-24 21:36 48.06728 16.45990 7056 ft 221 kts 226°
2026-04-24 21:36 48.05502 16.44422 7810 ft 243 kts 226°
2026-04-24 21:36 48.04168 16.42663 8487 ft 268 kts 226°
2026-04-24 21:37 48.02711 16.40741 9238 ft 287 kts 226°
2026-04-24 21:37 48.01207 16.38770 10241 ft 296 kts 225°
2026-04-24 21:37 47.99599 16.36666 10840 ft 319 kts 225°
2026-04-24 21:37 47.98049 16.34149 11296 ft 337 kts 242°
2026-04-24 21:38 47.97190 16.30889 12058 ft 340 kts 263°
2026-04-24 21:38 47.97177 16.27387 12979 ft 339 kts 283°
2026-04-24 21:38 47.97881 16.24009 13890 ft 343 kts 292°
2026-04-24 21:38 47.98700 16.20635 14754 ft 347 kts 292°
2026-04-24 21:39 47.99532 16.17229 15654 ft 351 kts 292°
2026-04-24 21:39 48.00366 16.13790 16531 ft 354 kts 292°
2026-04-24 21:39 48.01206 16.10295 17368 ft 359 kts 292°
2026-04-24 21:39 48.02038 16.06810 18234 ft 363 kts 291°
2026-04-24 21:40 48.02890 16.03239 18982 ft 367 kts 291°
2026-04-24 21:40 48.03749 15.99625 19701 ft 371 kts 291°
2026-04-24 21:40 48.04618 15.95963 20417 ft 376 kts 291°
2026-04-24 21:40 48.05493 15.92270 21136 ft 380 kts 291°
2026-04-24 21:41 48.06381 15.88511 21821 ft 384 kts 291°
2026-04-24 21:41 48.07278 15.84717 22533 ft 389 kts 291°
2026-04-24 21:41 48.08361 15.80986 23211 ft 392 kts 298°
2026-04-24 21:41 48.09752 15.77465 23859 ft 395 kts 305°
2026-04-24 21:42 48.11425 15.74190 24476 ft 397 kts 310°
2026-04-24 21:42 48.13182 15.70988 25083 ft 400 kts 310°
2026-04-24 21:42 48.14942 15.67750 25668 ft 402 kts 309°
2026-04-24 21:42 48.16692 15.64517 26221 ft 405 kts 309°
2026-04-24 21:43 48.18481 15.61208 26763 ft 409 kts 309°
2026-04-24 21:43 48.20276 15.57887 27291 ft 412 kts 309°
2026-04-24 21:43 48.22087 15.54531 27798 ft 415 kts 309°
2026-04-24 21:43 48.23912 15.51147 28279 ft 418 kts 309°
2026-04-24 21:44 48.25743 15.47743 28727 ft 421 kts 309°
2026-04-24 21:44 48.27506 15.44278 29161 ft 424 kts 304°
2026-04-24 21:44 48.28981 15.40434 29599 ft 427 kts 296°
2026-04-24 21:44 48.30101 15.36276 30014 ft 431 kts 289°
2026-04-24 21:45 48.30866 15.31900 30408 ft 434 kts 284°
2026-04-24 21:45 48.31570 15.27473 30808 ft 437 kts 284°
2026-04-24 21:45 48.32287 15.23028 31217 ft 439 kts 284°
2026-04-24 21:45 48.33004 15.18577 31706 ft 438 kts 284°
2026-04-24 21:46 48.33717 15.14127 32257 ft 436 kts 284°
2026-04-24 21:46 48.34424 15.09694 32800 ft 435 kts 284°
2026-04-24 21:46 48.35116 15.05331 33325 ft 433 kts 284°
2026-04-24 21:46 48.35812 15.00932 33835 ft 431 kts 284°
2026-04-24 21:47 48.36503 14.96544 34323 ft 430 kts 284°
2026-04-24 21:47 48.36958 14.93651 34621 ft 428 kts 284°
2026-04-24 21:47 48.37872 14.87834 35226 ft 426 kts 284°
2026-04-24 21:47 48.38549 14.83502 35681 ft 424 kts 284°
2026-04-24 21:48 48.39222 14.79189 36113 ft 422 kts 285°
2026-04-24 21:48 48.39889 14.74896 36536 ft 421 kts 285°
2026-04-24 21:48 48.40552 14.70623 36942 ft 419 kts 285°
2026-04-24 21:48 48.41210 14.66362 37352 ft 417 kts 285°
2026-04-24 21:49 48.41857 14.62163 37735 ft 416 kts 285°
2026-04-24 21:49 48.42508 14.57932 38046 ft 414 kts 285°
2026-04-24 21:49 48.43157 14.53711 38102 ft 413 kts 285°
2026-04-24 21:50 48.44465 14.45178 38099 ft 425 kts 285°
2026-04-24 21:50 48.45803 14.36397 38102 ft 434 kts 284°
2026-04-24 21:51 48.47148 14.27514 38105 ft 434 kts 284°
2026-04-24 21:51 48.48485 14.18630 38103 ft 434 kts 284°
2026-04-24 21:52 48.49808 14.09799 38103 ft 434 kts 284°
2026-04-24 21:52 48.51130 14.00917 38106 ft 434 kts 284°
2026-04-24 21:53 48.52446 13.92027 38108 ft 434 kts 284°
2026-04-24 21:53 48.53755 13.83138 38105 ft 434 kts 284°
2026-04-24 21:54 48.55057 13.74236 38117 ft 433 kts 284°
2026-04-24 21:54 48.56342 13.65402 38104 ft 434 kts 283°
2026-04-24 21:55 48.57638 13.56448 38107 ft 433 kts 283°
2026-04-24 21:55 48.59156 13.47702 38109 ft 433 kts 290°
2026-04-24 21:56 48.61229 13.39176 38105 ft 433 kts 290°
2026-04-24 21:56 48.63288 13.30628 38116 ft 432 kts 290°
2026-04-24 21:57 48.65336 13.22076 38118 ft 432 kts 290°
2026-04-24 21:57 48.67376 13.13519 38115 ft 432 kts 290°
2026-04-24 21:58 48.69412 13.04949 38118 ft 432 kts 290°
2026-04-24 21:58 48.71431 12.96391 38113 ft 432 kts 290°
2026-04-24 21:59 48.73446 12.87817 38117 ft 432 kts 290°
2026-04-24 21:59 48.75453 12.79243 38115 ft 432 kts 289°
2026-04-24 22:00 48.77458 12.70645 38120 ft 432 kts 289°
2026-04-24 22:00 48.79115 12.63516 38116 ft 432 kts 289°
2026-04-24 22:01 48.81102 12.54922 38121 ft 431 kts 289°
2026-04-24 22:01 48.83081 12.46328 38123 ft 432 kts 289°
2026-04-24 22:02 48.85375 12.36329 38127 ft 431 kts 289°
2026-04-24 22:02 48.87022 12.29121 38119 ft 431 kts 289°
2026-04-24 22:03 48.89141 12.20616 38125 ft 430 kts 294°
2026-04-24 22:03 48.91832 12.12554 38129 ft 431 kts 296°
2026-04-24 22:04 48.94534 12.04431 38131 ft 432 kts 296°
2026-04-24 22:04 48.97241 11.96269 38133 ft 431 kts 296°
2026-04-24 22:05 48.99940 11.88108 38133 ft 432 kts 296°
2026-04-24 22:05 49.02638 11.79930 38133 ft 432 kts 296°
2026-04-24 22:06 49.05326 11.71752 38129 ft 433 kts 295°
2026-04-24 22:06 49.08021 11.63529 38125 ft 432 kts 295°
2026-04-24 22:07 49.10705 11.55311 38130 ft 433 kts 295°
2026-04-24 22:07 49.13387 11.47073 38136 ft 433 kts 295°
2026-04-24 22:08 49.16063 11.38828 38146 ft 434 kts 295°
2026-04-24 22:08 49.18722 11.30603 38156 ft 433 kts 295°
2026-04-24 22:09 49.21379 11.22324 38151 ft 434 kts 294°
2026-04-24 22:09 49.23720 11.13805 38153 ft 434 kts 291°
2026-04-24 22:10 49.26047 11.05288 38150 ft 435 kts 291°
2026-04-24 22:10 49.28374 10.96735 38161 ft 434 kts 291°
2026-04-24 22:11 49.30690 10.88178 38155 ft 435 kts 291°
2026-04-24 22:11 49.33019 10.79616 38151 ft 435 kts 293°
2026-04-24 22:12 49.35998 10.71523 38149 ft 438 kts 303°
2026-04-24 22:12 49.39555 10.63992 38145 ft 438 kts 304°
2026-04-24 22:13 49.43127 10.56376 38154 ft 439 kts 304°
2026-04-24 22:13 49.46696 10.48760 38150 ft 439 kts 304°
2026-04-24 22:14 49.50261 10.41137 38153 ft 439 kts 304°
2026-04-24 22:14 49.53831 10.33485 38146 ft 440 kts 304°
2026-04-24 22:15 49.57395 10.25821 38145 ft 440 kts 304°
2026-04-24 22:15 49.60935 10.18189 38148 ft 440 kts 303°
2026-04-24 22:16 49.64485 10.10512 38155 ft 441 kts 303°
2026-04-24 22:16 49.68037 10.02807 38157 ft 440 kts 303°
2026-04-24 22:17 49.70841 9.94455 38158 ft 439 kts 288°
2026-04-24 22:17 49.72007 9.85249 38153 ft 437 kts 272°
2026-04-24 22:18 49.72246 9.75846 38155 ft 439 kts 272°
2026-04-24 22:18 49.72499 9.66421 38156 ft 439 kts 272°
2026-04-24 22:19 49.72738 9.56975 38159 ft 440 kts 272°
2026-04-24 22:19 49.72965 9.47569 38158 ft 440 kts 272°
2026-04-24 22:20 49.73185 9.38087 38157 ft 442 kts 271°
2026-04-24 22:20 49.73398 9.28581 38158 ft 442 kts 271°
2026-04-24 22:21 49.73603 9.19070 38158 ft 443 kts 271°
2026-04-24 22:21 49.73800 9.09590 38149 ft 443 kts 271°
2026-04-24 22:22 49.73991 9.00033 38146 ft 445 kts 271°
2026-04-24 22:22 49.74173 8.90525 38146 ft 445 kts 271°
2026-04-24 22:23 49.74348 8.80940 38147 ft 446 kts 271°
2026-04-24 22:23 49.74516 8.71345 38151 ft 446 kts 271°
2026-04-24 22:24 49.74677 8.61746 38153 ft 448 kts 270°
2026-04-24 22:24 49.74829 8.52152 38149 ft 437 kts 271°
2026-04-24 22:24 49.75058 8.47549 38150 ft 423 kts 276°
2026-04-24 22:25 49.75555 8.43071 38154 ft 424 kts 281°
2026-04-24 22:25 49.76789 8.34126 38157 ft 429 kts 281°
2026-04-24 22:26 49.77814 8.25046 37929 ft 429 kts 274°
2026-04-24 22:26 49.77989 8.20438 37655 ft 428 kts 271°
2026-04-24 22:26 49.78103 8.15831 37221 ft 429 kts 271°
2026-04-24 22:26 49.78228 8.11194 36495 ft 432 kts 271°
2026-04-24 22:27 49.78357 8.06548 35755 ft 433 kts 271°
2026-04-24 22:27 49.78484 8.01877 34941 ft 435 kts 271°
2026-04-24 22:27 49.78608 7.97191 34090 ft 437 kts 271°
2026-04-24 22:27 49.78730 7.92485 33227 ft 438 kts 271°
2026-04-24 22:28 49.78849 7.87777 32354 ft 438 kts 271°
2026-04-24 22:28 49.78967 7.83062 31461 ft 439 kts 271°
2026-04-24 22:28 49.79083 7.78337 30717 ft 437 kts 271°
2026-04-24 22:28 49.79196 7.73644 30178 ft 435 kts 271°
2026-04-24 22:29 49.79415 7.64354 28854 ft 426 kts 271°
2026-04-24 22:29 49.79519 7.59801 28223 ft 420 kts 271°
2026-04-24 22:29 49.79620 7.55311 27595 ft 415 kts 271°
2026-04-24 22:30 49.79718 7.50868 26978 ft 410 kts 271°
2026-04-24 22:30 49.79813 7.46496 26361 ft 405 kts 271°
2026-04-24 22:30 49.79904 7.42219 25758 ft 401 kts 271°
2026-04-24 22:30 49.79994 7.37918 25119 ft 398 kts 271°
2026-04-24 22:31 49.80081 7.33664 24529 ft 394 kts 271°
2026-04-24 22:31 49.80167 7.29430 23925 ft 392 kts 271°
2026-04-24 22:31 49.80250 7.25208 23250 ft 389 kts 271°
2026-04-24 22:31 49.80331 7.21053 22676 ft 383 kts 271°
2026-04-24 22:32 49.80409 7.16967 22068 ft 378 kts 271°
2026-04-24 22:32 49.80485 7.12920 21478 ft 374 kts 271°
2026-04-24 22:32 49.80559 7.08902 20885 ft 371 kts 271°
2026-04-24 22:32 49.80630 7.04926 20292 ft 368 kts 271°
2026-04-24 22:33 49.80700 7.00969 19691 ft 366 kts 271°
2026-04-24 22:33 49.80769 6.97043 19111 ft 364 kts 271°
2026-04-24 22:33 49.80835 6.93136 18517 ft 362 kts 271°
2026-04-24 22:33 49.80900 6.89252 17895 ft 359 kts 272°
2026-04-24 22:34 49.80963 6.85413 17318 ft 355 kts 272°
2026-04-24 22:34 49.81024 6.81603 16747 ft 352 kts 272°
2026-04-24 22:34 49.81084 6.77827 16169 ft 350 kts 272°
2026-04-24 22:34 49.81142 6.74114 15604 ft 348 kts 272°
2026-04-24 22:35 49.81198 6.70380 15040 ft 347 kts 272°
2026-04-24 22:35 49.81253 6.66650 14473 ft 345 kts 272°
2026-04-24 22:35 49.81308 6.62938 13902 ft 344 kts 272°
2026-04-24 22:35 49.81360 6.59244 13308 ft 342 kts 272°
2026-04-24 22:36 49.81410 6.55580 12751 ft 339 kts 272°
2026-04-24 22:36 49.81459 6.51952 12210 ft 335 kts 272°
2026-04-24 22:36 49.81506 6.48350 11661 ft 333 kts 272°
2026-04-24 22:36 49.81468 6.44781 11130 ft 331 kts 264°
2026-04-24 22:37 49.80934 6.41325 10600 ft 330 kts 250°
2026-04-24 22:37 49.79884 6.38227 10329 ft 319 kts 238°
2026-04-24 22:37 49.78731 6.35364 10210 ft 305 kts 239°
2026-04-24 22:37 49.77654 6.32641 9895 ft 298 kts 239°
2026-04-24 22:38 49.76600 6.29948 9700 ft 289 kts 239°
2026-04-24 22:38 49.75546 6.27264 9408 ft 295 kts 239°
2026-04-24 22:38 49.74469 6.24546 9020 ft 296 kts 239°
2026-04-24 22:38 49.73395 6.21835 8587 ft 295 kts 239°
2026-04-24 22:39 49.72338 6.19170 8180 ft 287 kts 239°
2026-04-24 22:39 49.71313 6.16590 7807 ft 276 kts 239°
2026-04-24 22:39 49.70322 6.14100 7453 ft 267 kts 239°
2026-04-24 22:39 49.69366 6.11698 7113 ft 258 kts 239°
2026-04-24 22:40 49.68401 6.09266 6833 ft 283 kts 239°
2026-04-24 22:40 49.67345 6.06605 6777 ft 294 kts 239°
2026-04-24 22:40 49.66284 6.03941 6726 ft 287 kts 239°
2026-04-24 22:40 49.65261 6.01383 6622 ft 272 kts 239°
2026-04-24 22:41 49.64297 5.98979 6470 ft 255 kts 239°
2026-04-24 22:41 49.63380 5.96692 6168 ft 248 kts 239°
2026-04-24 22:41 49.62457 5.94392 5487 ft 256 kts 238°
2026-04-24 22:41 49.61709 5.92947 4908 ft 266 kts 222°
2026-04-24 22:42 49.59447 5.91368 3684 ft 279 kts 183°
2026-04-24 22:42 49.57587 5.91787 3232 ft 264 kts 154°
2026-04-24 22:42 49.56070 5.93238 3086 ft 252 kts 139°
2026-04-24 22:42 49.54866 5.95081 3008 ft 239 kts 118°
2026-04-24 22:43 49.54484 5.97452 2994 ft 223 kts 84°
2026-04-24 22:43 49.54817 5.99639 2999 ft 197 kts 68°
2026-04-24 22:43 49.55338 6.01435 3012 ft 170 kts 62°
2026-04-24 22:43 49.55872 6.02948 2987 ft 159 kts 60°
2026-04-24 22:44 49.56397 6.04377 3027 ft 151 kts 60°
2026-04-24 22:44 49.56900 6.05761 2996 ft 148 kts 59°
2026-04-24 22:44 49.57426 6.07131 3013 ft 150 kts 59°
2026-04-24 22:44 49.57940 6.08521 2994 ft 147 kts 59°
2026-04-24 22:45 49.58442 6.09867 2895 ft 148 kts 59°
2026-04-24 22:45 49.58954 6.11247 2521 ft 144 kts 58°
2026-04-24 22:45 49.59427 6.12517 2208 ft 130 kts 58°
2026-04-24 22:45 49.59895 6.13771 1955 ft 137 kts 58°
2026-04-24 22:46 49.60372 6.15054 1767 ft 139 kts 58°
2026-04-24 22:46 49.60856 6.16362 1580 ft 141 kts 58°
2026-04-24 22:46 49.61179 6.17226 1459 ft 141 kts 58°
2026-04-24 22:46 49.61668 6.18537 1273 ft 141 kts 58°
2026-04-24 22:47 49.62151 6.19795 1226 ft 117 kts 60°
2026-04-24 22:47 49.62398 6.20472 1219 ft 28 kts 61°
2026-04-24 22:47 49.62415 6.20517 1219 ft 1 kts 56°
2026-04-24 22:47 49.62526 6.20614 1219 ft 23 kts 20°
2026-04-24 22:48 49.62558 6.20633 1219 ft 0 kts 20°
2026-04-24 22:50 49.62575 6.20642 1219 ft 13 kts 20°
2026-04-24 22:51 49.62741 6.20741 1217 ft 36 kts 21°
2026-04-24 22:51 49.62816 6.20820 1217 ft 11 kts 50°
2026-04-24 22:51 49.62864 6.20947 1218 ft 16 kts 60°
2026-04-24 22:51 49.62922 6.21123 1218 ft 20 kts 67°
2026-04-24 22:52 49.62984 6.21343 1217 ft 24 kts 64°
2026-04-24 22:52 49.63060 6.21591 1217 ft 27 kts 64°
2026-04-24 22:52 49.63123 6.21769 1218 ft 0 kts 28°
2026-04-24 22:52 49.63138 6.21770 1218 ft 5 kts 356°
2026-04-24 22:53 49.63182 6.21742 1218 ft 9 kts 329°
2026-04-24 22:53 49.63207 6.21719 1218 ft 3 kts 329°
2026-04-24 22:53 49.63241 6.21683 1218 ft 8 kts 320°
2026-04-24 22:53 49.63244 6.21679 1218 ft 0 kts 319°
2026-04-24 22:54 49.63254 6.21675 1218 ft 3 kts 353°
2026-04-24 22:54 49.63303 6.21695 1218 ft 9 kts 20°
2026-04-24 22:54 49.63351 6.21687 1218 ft 0 kts 333°
2026-04-24 22:55 49.63357 6.21687 1218 ft 0 kts 350°
2026-04-24 22:55 49.63363 6.21681 1218 ft 0 kts 327°